Skip Page Navigation
NASA JPL Caltech
NASA Logo - Jet Propulsion Laboratory + View the NASA Portal
+ Center for Near-Earth Object Studies
JPL Home Earth Solar System Stars & Galaxies Technology
JPL Solar System Dynamics
BODIES ORBITS EPHEMERIDES TOOLS PHYSICAL DATA DISCOVERY FAQ SITE MAP
IMPORTANT: The SSD Announcement email list is now available. Major changes are coming in the near future, including possible hostname and/or URL changes. To be notified of such changes, subscribe to this email list.

Please visit this page for more details.


JPL Small-Body Database Browser
Search: [ help ]  
214841 (2006 VQ147)
Classification: Main-belt Asteroid          SPK-ID: 2214841
Ephemeris | Orbit Diagram | Orbital Elements | Mission Design | Physical Parameters | Discovery Circumstances | Close-Approach Data ]

[ show orbit diagram ]
Orbital Elements at Epoch 2458600.5 (2019-Apr-27.0) TDB
Reference: JPL 13 (heliocentric ecliptic J2000)
 Element Value Uncertainty (1-sigma)   Units 
e .07661559190769196 9.1816e-08  
a 3.061703499797812 4.1406e-08 au
q 2.827129273914951 2.9966e-07 au
i 16.95300430777332 9.0926e-06 deg
node 59.22864244055287 3.0426e-05 deg
peri 356.3943122936557 7.4402e-05 deg
M 122.0845177629724 7.06e-05 deg
tp 2457936.907889347098
(2017-Jul-02.40788935)
0.00037587 TDB
period 1956.785055242278
5.36
3.9695e-05
1.087e-07
d
yr
n .1839752399148545 3.7321e-09 deg/d
Q 3.296277725680674 4.4579e-08 au
  Orbit Determination Parameters
   # obs. used (total)      293  
   data-arc span      8565 days (23.45 yr)  
   first obs. used      1995-11-25  
   last obs. used      2019-05-08  
   planetary ephem.      DE431  
   SB-pert. ephem.      SB431-N16  
   condition code      0  
   norm. resid. RMS      .56336  
   source      ORB  
   producer      Otto Matic  
   solution date      2019-May-30 08:21:36  

Additional Information
 Earth MOID = 1.83894 au 
 Jupiter MOID = 2.06614 au 
 T_jup = 3.163 
[ show covariance matrix ]

Ephemeris | Orbit Diagram | Orbital Elements | Mission Design | Physical Parameters | Discovery Circumstances | Close-Approach Data ]

Physical Parameter Table
Parameter Symbol Value Units Sigma Reference Notes
absolute magnitude H 15.1   n/a MPO433405  
diameter diameter 5.481 km 0.404 urn:nasa:pds:neowise_diameters_albedos::2.0[mainbelt] (http://adsabs.harvard.edu/abs/2011ApJ...741...68M)  
geometric albedo albedo 0.078   0.015 urn:nasa:pds:neowise_diameters_albedos::2.0[mainbelt] (http://adsabs.harvard.edu/abs/2011ApJ...741...68M)  

214841 (2006 VQ147)          Discovered 2006-Nov-15 by CSS at Catalina
Reference: 20090509/Numbers.arcLast Updated: 2009-05-11

[ show close-approach data ]
Ephemeris | Orbit Diagram | Orbital Elements | Mission Design | Physical Parameters | Discovery Circumstances | Close-Approach Data ]
ABOUT SSD CREDITS/AWARDS PRIVACY/COPYRIGHT GLOSSARY LINKS
FirstGov 2019-Dec-12 13:58 UT
(server date/time)  
NASA Home Page
Site Manager:   Ryan S. Park
Webmaster  Alan B. Chamberlin